Time,TemperatureF,DewpointF,PressureIn,WindDirection,WindDirectionDegrees,WindSpeedMPH,WindSpeedGustMPH,Humidity,HourlyPrecipIn,Conditions,Clouds,dailyrainin,SoftwareType,DateUTC
2013-03-28 00:00:00,35.4,21.7,30.32,NW,315,0.0,0.0,57,0.00,,,0.00,meteohub,2013-03-28 04:00:00,
2013-03-28 00:02:00,35.4,21.7,30.32,NW,315,0.0,0.0,57,0.00,,,0.00,meteohub,2013-03-28 04:02:00,
2013-03-28 00:07:00,35.4,21.7,30.32,NW,315,0.0,0.0,57,0.00,,,0.00,meteohub,2013-03-28 04:07:00,
2013-03-28 00:12:00,35.1,21.7,30.32,NW,315,0.0,0.0,58,0.00,,,0.00,meteohub,2013-03-28 04:12:00,
2013-03-28 00:17:00,35.2,21.9,30.33,West,270,0.0,0.0,58,0.00,,,0.00,meteohub,2013-03-28 04:17:00,
2013-03-28 00:22:00,35.2,21.9,30.32,West,270,0.0,0.0,58,0.00,,,0.00,meteohub,2013-03-28 04:22:00,
2013-03-28 00:27:00,35.1,21.7,30.32,West,270,0.0,0.0,58,0.00,,,0.00,meteohub,2013-03-28 04:27:00,
2013-03-28 00:33:00,34.7,21.9,30.32,West,270,0.0,0.0,59,0.00,,,0.00,meteohub,2013-03-28 04:33:00,
2013-03-28 00:38:00,34.3,21.9,30.32,West,270,0.0,0.0,60,0.00,,,0.00,meteohub,2013-03-28 04:38:00,
2013-03-28 00:43:00,34.5,22.1,30.33,West,270,0.0,0.0,60,0.00,,,0.00,meteohub,2013-03-28 04:43:00,
2013-03-28 00:48:00,34.5,22.1,30.32,West,270,0.0,0.0,60,0.00,,,0.00,meteohub,2013-03-28 04:48:00,
2013-03-28 00:53:00,34.9,22.5,30.33,West,270,0.0,0.0,60,0.00,,,0.00,meteohub,2013-03-28 04:53:00,
2013-03-28 00:58:00,34.9,21.9,30.33,West,270,0.0,0.0,59,0.00,,,0.00,meteohub,2013-03-28 04:58:00,
2013-03-28 01:03:00,35.1,22.1,30.33,West,270,0.0,0.0,59,0.00,,,0.00,meteohub,2013-03-28 05:03:00,
2013-03-28 01:08:00,35.2,21.9,30.33,West,270,0.0,0.0,58,0.00,,,0.00,meteohub,2013-03-28 05:08:00,
2013-03-28 01:13:00,35.4,22.1,30.33,West,270,0.0,0.0,58,0.00,,,0.00,meteohub,2013-03-28 05:13:00,
2013-03-28 01:19:00,35.4,22.1,30.33,West,270,0.0,0.0,58,0.00,,,0.00,meteohub,2013-03-28 05:19:00,
2013-03-28 01:24:00,35.1,21.7,30.32,West,270,0.0,0.0,58,0.00,,,0.00,meteohub,2013-03-28 05:24:00,
2013-03-28 01:29:00,34.9,21.9,30.32,West,270,0.0,0.0,59,0.00,,,0.00,meteohub,2013-03-28 05:29:00,
2013-03-28 01:34:00,34.5,21.7,30.32,West,270,0.0,0.0,59,0.00,,,0.00,meteohub,2013-03-28 05:34:00,
2013-03-28 01:39:00,34.3,21.6,30.33,West,270,0.0,0.0,59,0.00,,,0.00,meteohub,2013-03-28 05:39:00,
2013-03-28 01:44:00,34.3,21.9,30.33,West,270,0.0,0.0,60,0.00,,,0.00,meteohub,2013-03-28 05:44:00,
2013-03-28 01:50:00,34.3,21.9,30.33,West,270,0.0,0.0,60,0.00,,,0.00,meteohub,2013-03-28 05:50:00,
2013-03-28 01:55:00,34.3,21.9,30.33,West,270,0.0,0.0,60,0.00,,,0.00,meteohub,2013-03-28 05:55:00,
2013-03-28 02:00:00,34.2,22.1,30.33,West,270,0.0,0.0,61,0.00,,,0.00,meteohub,2013-03-28 06:00:00,
2013-03-28 02:05:00,33.8,22.1,30.32,West,270,0.0,0.0,62,0.00,,,0.00,meteohub,2013-03-28 06:05:00,
2013-03-28 02:10:00,33.6,22.5,30.32,West,270,0.0,0.0,63,0.00,,,0.00,meteohub,2013-03-28 06:10:00,
2013-03-28 02:15:00,33.8,22.1,30.32,NW,315,0.0,0.0,62,0.00,,,0.00,meteohub,2013-03-28 06:15:00,
2013-03-28 02:21:00,34.3,22.6,30.32,NW,315,0.0,0.0,62,0.00,,,0.00,meteohub,2013-03-28 06:21:00,
2013-03-28 02:27:00,34.9,22.8,30.32,NW,315,0.0,0.0,61,0.00,,,0.00,meteohub,2013-03-28 06:27:00,
2013-03-28 02:32:00,34.5,22.1,30.32,NW,315,0.0,0.0,60,0.00,,,0.00,meteohub,2013-03-28 06:32:00,
2013-03-28 02:37:00,34.3,21.9,30.32,NW,315,0.0,0.0,60,0.00,,,0.00,meteohub,2013-03-28 06:37:00,
2013-03-28 02:42:00,33.8,21.7,30.32,NW,315,0.0,0.0,61,0.00,,,0.00,meteohub,2013-03-28 06:42:00,
2013-03-28 02:47:00,33.4,22.3,30.32,NW,315,0.0,0.0,63,0.00,,,0.00,meteohub,2013-03-28 06:47:00,
2013-03-28 02:53:00,33.3,22.1,30.32,NW,315,0.0,0.0,63,0.00,,,0.00,meteohub,2013-03-28 06:53:00,
2013-03-28 02:58:00,34.0,22.3,30.32,West,270,0.0,0.0,62,0.00,,,0.00,meteohub,2013-03-28 06:58:00,
2013-03-28 03:04:00,34.2,22.5,30.32,West,270,0.0,0.0,62,0.00,,,0.00,meteohub,2013-03-28 07:04:00,
2013-03-28 03:09:00,34.0,22.3,30.32,West,270,0.0,0.0,62,0.00,,,0.00,meteohub,2013-03-28 07:09:00,
2013-03-28 03:14:00,33.6,22.5,30.32,West,270,0.0,0.0,63,0.00,,,0.00,meteohub,2013-03-28 07:14:00,
2013-03-28 03:19:00,33.3,22.1,30.32,West,270,0.0,0.0,63,0.00,,,0.00,meteohub,2013-03-28 07:19:00,
2013-03-28 03:24:00,33.4,22.6,30.31,West,270,0.0,0.0,64,0.00,,,0.00,meteohub,2013-03-28 07:24:00,
2013-03-28 03:29:00,33.4,22.6,30.32,West,270,0.0,0.0,64,0.00,,,0.00,meteohub,2013-03-28 07:29:00,
2013-03-28 03:35:00,33.4,22.6,30.31,West,270,0.0,0.0,64,0.00,,,0.00,meteohub,2013-03-28 07:35:00,
2013-03-28 03:40:00,33.1,22.3,30.31,West,270,0.0,0.0,64,0.00,,,0.00,meteohub,2013-03-28 07:40:00,
2013-03-28 03:45:00,33.3,22.5,30.31,West,270,0.0,0.0,64,0.00,,,0.00,meteohub,2013-03-28 07:45:00,
2013-03-28 03:50:00,33.6,22.8,30.31,West,270,0.0,0.0,64,0.00,,,0.00,meteohub,2013-03-28 07:50:00,
2013-03-28 03:55:00,34.0,22.3,30.31,West,270,0.0,0.0,62,0.00,,,0.00,meteohub,2013-03-28 07:55:00,
2013-03-28 04:00:00,34.3,22.6,30.31,West,270,0.0,0.0,62,0.00,,,0.00,meteohub,2013-03-28 08:00:00,
2013-03-28 04:05:00,34.5,22.5,30.31,West,270,0.0,0.0,61,0.00,,,0.00,meteohub,2013-03-28 08:05:00,
2013-03-28 04:10:00,34.7,22.6,30.31,West,270,0.0,0.0,61,0.00,,,0.00,meteohub,2013-03-28 08:10:00,
2013-03-28 04:15:00,34.9,22.5,30.31,NW,315,0.0,0.0,60,0.00,,,0.00,meteohub,2013-03-28 08:15:00,
2013-03-28 04:20:00,34.9,22.5,30.31,NW,315,0.0,0.0,60,0.00,,,0.00,meteohub,2013-03-28 08:20:00,
2013-03-28 04:25:00,34.7,22.3,30.30,West,270,0.0,0.0,60,0.00,,,0.00,meteohub,2013-03-28 08:25:00,
2013-03-28 04:30:00,34.7,22.3,30.31,West,270,0.0,0.0,60,0.00,,,0.00,meteohub,2013-03-28 08:30:00,
2013-03-28 04:36:00,34.3,22.3,30.31,West,270,0.0,0.0,61,0.00,,,0.00,meteohub,2013-03-28 08:36:00,
2013-03-28 04:41:00,34.0,21.9,30.31,West,270,0.0,0.0,61,0.00,,,0.00,meteohub,2013-03-28 08:41:00,
2013-03-28 04:46:00,34.2,22.5,30.31,West,270,0.0,0.0,62,0.00,,,0.00,meteohub,2013-03-28 08:46:00,
2013-03-28 04:51:00,34.3,22.6,30.31,West,270,0.0,0.0,62,0.00,,,0.00,meteohub,2013-03-28 08:51:00,
2013-03-28 04:56:00,34.5,22.5,30.31,West,270,0.0,0.0,61,0.00,,,0.00,meteohub,2013-03-28 08:56:00,
2013-03-28 05:01:00,34.7,22.3,30.31,NW,315,0.0,0.0,60,0.00,,,0.00,meteohub,2013-03-28 09:01:00,
2013-03-28 05:06:00,35.1,22.6,30.31,West,270,0.0,0.0,60,0.00,,,0.00,meteohub,2013-03-28 09:06:00,
2013-03-28 05:12:00,35.2,22.3,30.31,West,270,0.0,0.0,59,0.00,,,0.00,meteohub,2013-03-28 09:12:00,
2013-03-28 05:17:00,35.4,22.5,30.31,West,270,0.0,0.0,59,0.00,,,0.00,meteohub,2013-03-28 09:17:00,
2013-03-28 05:22:00,35.6,21.9,30.31,West,270,0.0,0.0,57,0.00,,,0.00,meteohub,2013-03-28 09:22:00,
2013-03-28 05:27:00,35.6,21.9,30.30,NW,315,0.0,0.0,57,0.00,,,0.00,meteohub,2013-03-28 09:27:00,
2013-03-28 05:32:00,35.6,21.9,30.31,NW,315,0.0,1.0,57,0.00,,,0.00,meteohub,2013-03-28 09:32:00,
2013-03-28 05:38:00,35.8,22.1,30.31,NW,315,0.0,1.0,57,0.00,,,0.00,meteohub,2013-03-28 09:38:00,
2013-03-28 05:43:00,35.6,21.9,30.31,NW,315,0.0,0.0,57,0.00,,,0.00,meteohub,2013-03-28 09:43:00,
2013-03-28 05:48:00,35.4,22.1,30.31,NW,315,0.0,0.0,58,0.00,,,0.00,meteohub,2013-03-28 09:48:00,
2013-03-28 05:53:00,35.4,22.1,30.31,NW,315,0.0,0.0,58,0.00,,,0.00,meteohub,2013-03-28 09:53:00,
2013-03-28 05:58:00,35.2,22.3,30.31,NW,315,0.0,0.0,59,0.00,,,0.00,meteohub,2013-03-28 09:58:00,
2013-03-28 06:03:00,35.2,21.9,30.30,NW,315,0.0,0.0,58,0.00,,,0.00,meteohub,2013-03-28 10:03:00,
2013-03-28 06:08:00,35.2,22.3,30.31,NW,315,0.0,0.0,59,0.00,,,0.00,meteohub,2013-03-28 10:08:00,
2013-03-28 06:14:00,35.1,22.1,30.31,NW,315,0.0,0.0,59,0.00,,,0.00,meteohub,2013-03-28 10:14:00,
2013-03-28 06:19:00,34.9,21.9,30.31,NW,315,0.0,0.0,59,0.00,,,0.00,meteohub,2013-03-28 10:19:00,
2013-03-28 06:24:00,34.7,22.3,30.31,NW,315,0.0,0.0,60,0.00,,,0.00,meteohub,2013-03-28 10:24:00,
2013-03-28 06:29:00,34.5,22.5,30.31,NW,315,0.0,0.0,61,0.00,,,0.00,meteohub,2013-03-28 10:29:00,
2013-03-28 06:34:00,34.3,22.3,30.32,NW,315,0.0,0.0,61,0.00,,,0.00,meteohub,2013-03-28 10:34:00,
2013-03-28 06:39:00,34.3,22.3,30.32,NW,315,0.0,0.0,61,0.00,,,0.00,meteohub,2013-03-28 10:39:00,
2013-03-28 06:44:00,33.6,22.5,30.32,NW,315,0.0,0.0,63,0.00,,,0.00,meteohub,2013-03-28 10:44:00,
2013-03-28 06:50:00,33.1,22.3,30.32,West,270,0.0,0.0,64,0.00,,,0.00,meteohub,2013-03-28 10:50:00,
2013-03-28 06:55:00,32.7,21.9,30.32,West,270,0.0,0.0,64,0.00,,,0.00,meteohub,2013-03-28 10:55:00,
2013-03-28 07:00:00,32.5,22.1,30.32,West,270,0.0,0.0,65,0.00,,,0.00,meteohub,2013-03-28 11:00:00,
2013-03-28 07:05:00,32.2,21.7,30.32,West,270,0.0,0.0,65,0.00,,,0.00,meteohub,2013-03-28 11:05:00,
2013-03-28 07:10:00,31.8,22.1,30.32,West,270,0.0,0.0,67,0.00,,,0.00,meteohub,2013-03-28 11:10:00,
2013-03-28 07:15:00,31.6,22.3,30.32,West,270,0.0,0.0,68,0.00,,,0.00,meteohub,2013-03-28 11:15:00,
2013-03-28 07:20:00,31.5,22.1,30.32,West,270,0.0,0.0,68,0.00,,,0.00,meteohub,2013-03-28 11:20:00,
2013-03-28 07:25:00,31.3,22.3,30.32,West,270,0.0,0.0,69,0.00,,,0.00,meteohub,2013-03-28 11:25:00,
2013-03-28 07:30:00,31.3,22.6,30.32,West,270,0.0,0.0,70,0.00,,,0.00,meteohub,2013-03-28 11:30:00,
2013-03-28 07:36:00,31.5,22.8,30.33,West,270,0.0,0.0,70,0.00,,,0.00,meteohub,2013-03-28 11:36:00,
2013-03-28 07:41:00,31.8,23.5,30.33,West,270,0.0,0.0,71,0.00,,,0.00,meteohub,2013-03-28 11:41:00,
2013-03-28 07:46:00,31.8,23.5,30.33,West,270,0.0,0.0,71,0.00,,,0.00,meteohub,2013-03-28 11:46:00,
2013-03-28 07:51:00,31.8,23.5,30.33,West,270,0.0,0.0,71,0.00,,,0.00,meteohub,2013-03-28 11:51:00,
2013-03-28 07:56:00,32.2,23.5,30.33,West,270,0.0,0.0,70,0.00,,,0.00,meteohub,2013-03-28 11:56:00,
2013-03-28 08:01:00,32.4,23.7,30.33,West,270,0.0,0.0,70,0.00,,,0.00,meteohub,2013-03-28 12:01:00,
2013-03-28 08:06:00,33.3,24.3,30.33,West,270,0.0,0.0,69,0.00,,,0.00,meteohub,2013-03-28 12:06:00,
2013-03-28 08:12:00,34.2,24.1,30.33,West,270,0.0,0.0,66,0.00,,,0.00,meteohub,2013-03-28 12:12:00,
2013-03-28 08:17:00,34.7,24.1,30.33,West,270,0.0,0.0,65,0.00,,,0.00,meteohub,2013-03-28 12:17:00,
2013-03-28 08:22:00,35.4,24.4,30.33,West,270,0.0,0.0,64,0.00,,,0.00,meteohub,2013-03-28 12:22:00,
2013-03-28 08:27:00,35.8,24.1,30.33,NW,315,0.0,0.0,62,0.00,,,0.00,meteohub,2013-03-28 12:27:00,
2013-03-28 08:32:00,36.9,24.6,30.33,West,270,0.0,0.0,61,0.00,,,0.00,meteohub,2013-03-28 12:32:00,
2013-03-28 08:37:00,38.8,27.0,30.33,West,270,0.0,0.0,62,0.00,,,0.00,meteohub,2013-03-28 12:37:00,
2013-03-28 08:42:00,40.1,27.0,30.34,West,270,1.0,0.0,59,0.00,,,0.00,meteohub,2013-03-28 12:42:00,
2013-03-28 08:47:00,40.5,26.4,30.34,NW,315,0.0,1.0,57,0.00,,,0.00,meteohub,2013-03-28 12:47:00,
2013-03-28 08:52:00,40.8,26.8,30.34,NW,315,0.0,1.0,57,0.00,,,0.00,meteohub,2013-03-28 12:52:00,
2013-03-28 08:57:00,41.7,27.1,30.34,NW,315,0.0,1.0,56,0.00,,,0.00,meteohub,2013-03-28 12:57:00,
2013-03-28 09:03:00,41.9,27.0,30.34,WSW,248,0.0,1.0,55,0.00,,,0.00,meteohub,2013-03-28 13:03:00,
2013-03-28 09:08:00,42.1,27.1,30.34,West,270,0.0,1.0,55,0.00,,,0.00,meteohub,2013-03-28 13:08:00,
2013-03-28 09:13:00,43.2,27.7,30.34,NW,315,0.0,1.0,54,0.00,,,0.00,meteohub,2013-03-28 13:13:00,
2013-03-28 09:18:00,44.1,27.5,30.34,WNW,293,0.0,1.0,52,0.00,,,0.00,meteohub,2013-03-28 13:18:00,
2013-03-28 09:23:00,45.0,27.0,30.34,WNW,293,0.0,0.0,49,0.00,,,0.00,meteohub,2013-03-28 13:23:00,
2013-03-28 09:28:00,44.1,26.6,30.34,NW,315,0.0,0.0,50,0.00,,,0.00,meteohub,2013-03-28 13:28:00,
2013-03-28 09:33:00,44.1,27.1,30.34,NW,315,0.0,0.0,51,0.00,,,0.00,meteohub,2013-03-28 13:33:00,
2013-03-28 09:39:00,43.5,26.1,30.34,NW,315,0.0,0.0,50,0.00,,,0.00,meteohub,2013-03-28 13:39:00,
2013-03-28 09:44:00,44.1,25.7,30.34,NW,315,0.0,0.0,48,0.00,,,0.00,meteohub,2013-03-28 13:44:00,
2013-03-28 09:49:00,44.1,24.6,30.34,NW,315,1.0,1.0,46,0.00,,,0.00,meteohub,2013-03-28 13:49:00,
2013-03-28 09:54:00,44.2,24.3,30.34,NW,315,0.0,1.0,45,0.00,,,0.00,meteohub,2013-03-28 13:54:00,
2013-03-28 09:59:00,44.4,23.9,30.34,NW,315,0.0,1.0,44,0.00,,,0.00,meteohub,2013-03-28 13:59:00,
2013-03-28 10:04:00,44.6,23.0,30.34,NW,315,0.0,1.0,42,0.00,,,0.00,meteohub,2013-03-28 14:04:00,
2013-03-28 10:09:00,44.6,23.0,30.34,NW,315,0.0,0.0,42,0.00,,,0.00,meteohub,2013-03-28 14:09:00,
2013-03-28 10:14:00,44.8,23.0,30.34,NW,315,0.0,0.0,42,0.00,,,0.00,meteohub,2013-03-28 14:14:00,
2013-03-28 10:19:00,45.1,23.4,30.34,West,270,0.0,0.0,42,0.00,,,0.00,meteohub,2013-03-28 14:19:00,
2013-03-28 10:25:00,45.9,23.5,30.34,NW,315,0.0,0.0,41,0.00,,,0.00,meteohub,2013-03-28 14:25:00,
2013-03-28 10:30:00,47.1,24.6,30.33,NW,315,0.0,0.0,41,0.00,,,0.00,meteohub,2013-03-28 14:30:00,
2013-03-28 10:35:00,46.6,23.0,30.34,NW,315,0.0,0.0,39,0.00,,,0.00,meteohub,2013-03-28 14:35:00,
2013-03-28 10:40:00,46.8,23.7,30.34,NW,315,0.0,0.0,40,0.00,,,0.00,meteohub,2013-03-28 14:40:00,
2013-03-28 10:45:00,46.9,22.6,30.34,NW,315,0.0,0.0,38,0.00,,,0.00,meteohub,2013-03-28 14:45:00,
2013-03-28 10:51:00,47.3,22.3,30.34,West,270,6.0,6.0,37,0.00,,,0.00,meteohub,2013-03-28 14:51:00,
2013-03-28 10:56:00,47.7,23.4,30.34,NW,315,0.0,6.0,38,0.00,,,0.00,meteohub,2013-03-28 14:56:00,
2013-03-28 11:01:00,49.6,23.7,30.33,West,270,0.0,6.0,36,0.00,,,0.00,meteohub,2013-03-28 15:01:00,
2013-03-28 11:06:00,51.1,23.0,30.33,WNW,293,0.0,6.0,33,0.00,,,0.00,meteohub,2013-03-28 15:06:00,
2013-03-28 11:11:00,50.4,20.8,30.33,West,270,0.0,0.0,31,0.00,,,0.00,meteohub,2013-03-28 15:11:00,
2013-03-28 11:17:00,51.1,23.0,30.33,NW,315,0.0,0.0,33,0.00,,,0.00,meteohub,2013-03-28 15:17:00,
2013-03-28 11:22:00,50.5,21.7,30.33,NW,315,0.0,0.0,32,0.00,,,0.00,meteohub,2013-03-28 15:22:00,
2013-03-28 11:27:00,49.6,22.5,30.33,NW,315,0.0,0.0,34,0.00,,,0.00,meteohub,2013-03-28 15:27:00,
2013-03-28 11:32:00,49.3,20.7,30.33,NW,315,0.0,0.0,32,0.00,,,0.00,meteohub,2013-03-28 15:32:00,
2013-03-28 11:37:00,48.9,20.3,30.33,NW,315,1.0,0.0,32,0.00,,,0.00,meteohub,2013-03-28 15:37:00,
2013-03-28 11:42:00,49.1,21.9,30.33,NW,315,0.0,1.0,34,0.00,,,0.00,meteohub,2013-03-28 15:42:00,
2013-03-28 11:47:00,49.5,22.3,30.33,NW,315,0.0,1.0,34,0.00,,,0.00,meteohub,2013-03-28 15:47:00,
2013-03-28 11:52:00,48.9,21.0,30.33,NW,315,0.0,1.0,33,0.00,,,0.00,meteohub,2013-03-28 15:52:00,
2013-03-28 11:57:00,48.9,21.7,30.32,NW,315,0.0,0.0,34,0.00,,,0.00,meteohub,2013-03-28 15:57:00,
2013-03-28 12:02:00,49.1,21.9,30.33,NW,315,1.0,0.0,34,0.00,,,0.00,meteohub,2013-03-28 16:02:00,
2013-03-28 12:07:00,49.5,22.3,30.32,NW,315,0.0,1.0,34,0.00,,,0.00,meteohub,2013-03-28 16:07:00,
2013-03-28 12:12:00,49.8,21.9,30.32,NW,315,0.0,1.0,33,0.00,,,0.00,meteohub,2013-03-28 16:12:00,
2013-03-28 12:18:00,49.6,22.5,30.32,NW,315,0.0,9.0,34,0.00,,,0.00,meteohub,2013-03-28 16:18:00,
2013-03-28 12:23:00,50.2,22.1,30.32,NW,315,0.0,9.0,33,0.00,,,0.00,meteohub,2013-03-28 16:23:00,
2013-03-28 12:28:00,50.5,21.0,30.32,West,270,0.0,9.0,31,0.00,,,0.00,meteohub,2013-03-28 16:28:00,
2013-03-28 12:33:00,50.4,20.8,30.32,NW,315,0.0,0.0,31,0.00,,,0.00,meteohub,2013-03-28 16:33:00,
2013-03-28 12:38:00,50.5,22.5,30.31,West,270,0.0,0.0,33,0.00,,,0.00,meteohub,2013-03-28 16:38:00,
2013-03-28 12:43:00,50.7,21.2,30.31,West,270,0.0,0.0,31,0.00,,,0.00,meteohub,2013-03-28 16:43:00,
2013-03-28 12:48:00,50.7,21.2,30.31,West,270,0.0,0.0,31,0.00,,,0.00,meteohub,2013-03-28 16:48:00,
2013-03-28 12:53:00,51.4,21.7,30.31,West,270,0.0,0.0,31,0.00,,,0.00,meteohub,2013-03-28 16:53:00,
2013-03-28 12:58:00,52.0,19.9,30.31,West,270,0.0,0.0,28,0.00,,,0.00,meteohub,2013-03-28 16:58:00,
2013-03-28 13:04:00,52.2,20.1,30.31,West,270,0.0,0.0,28,0.00,,,0.00,meteohub,2013-03-28 17:04:00,
2013-03-28 13:09:00,52.5,20.3,30.30,NW,315,0.0,0.0,28,0.00,,,0.00,meteohub,2013-03-28 17:09:00,
2013-03-28 13:15:00,53.4,20.3,30.30,West,270,0.0,0.0,27,0.00,,,0.00,meteohub,2013-03-28 17:15:00,
2013-03-28 13:20:00,53.4,21.2,30.30,NW,315,0.0,0.0,28,0.00,,,0.00,meteohub,2013-03-28 17:20:00,
2013-03-28 13:25:00,53.6,20.5,30.30,West,270,0.0,0.0,27,0.00,,,0.00,meteohub,2013-03-28 17:25:00,
2013-03-28 13:30:00,53.6,20.5,30.30,NW,315,0.0,0.0,27,0.00,,,0.00,meteohub,2013-03-28 17:30:00,
2013-03-28 13:35:00,53.6,20.5,30.30,WNW,293,0.0,0.0,27,0.00,,,0.00,meteohub,2013-03-28 17:35:00,
2013-03-28 13:40:00,53.2,21.7,30.29,West,270,0.0,0.0,29,0.00,,,0.00,meteohub,2013-03-28 17:40:00,
2013-03-28 13:45:00,53.4,21.2,30.30,NW,315,0.0,0.0,28,0.00,,,0.00,meteohub,2013-03-28 17:45:00,
2013-03-28 13:51:00,53.8,19.8,30.29,North,0,8.0,0.0,26,0.00,,,0.00,meteohub,2013-03-28 17:51:00,
2013-03-28 13:56:00,53.4,21.2,30.29,NW,315,1.0,8.0,28,0.00,,,0.00,meteohub,2013-03-28 17:56:00,
2013-03-28 14:01:00,53.1,20.8,30.29,West,270,0.0,8.0,28,0.00,,,0.00,meteohub,2013-03-28 18:01:00,
2013-03-28 14:07:00,53.6,20.5,30.29,NW,315,0.0,8.0,27,0.00,,,0.00,meteohub,2013-03-28 18:07:00,
2013-03-28 14:13:00,54.5,20.3,30.28,West,270,0.0,1.0,26,0.00,,,0.00,meteohub,2013-03-28 18:13:00,
2013-03-28 14:18:00,55.2,20.8,30.28,West,270,0.0,0.0,26,0.00,,,0.00,meteohub,2013-03-28 18:18:00,
2013-03-28 14:23:00,54.5,19.4,30.28,West,270,0.0,1.0,25,0.00,,,0.00,meteohub,2013-03-28 18:23:00,
2013-03-28 14:28:00,54.3,19.2,30.28,NW,315,0.0,1.0,25,0.00,,,0.00,meteohub,2013-03-28 18:28:00,
2013-03-28 14:33:00,55.0,19.8,30.28,NW,315,0.0,1.0,25,0.00,,,0.00,meteohub,2013-03-28 18:33:00,
2013-03-28 14:38:00,54.5,18.5,30.28,West,270,0.0,0.0,24,0.00,,,0.00,meteohub,2013-03-28 18:38:00,
2013-03-28 14:43:00,54.5,19.4,30.28,NW,315,0.0,1.0,25,0.00,,,0.00,meteohub,2013-03-28 18:43:00,
2013-03-28 14:48:00,54.5,18.5,30.27,West,270,0.0,4.0,24,0.00,,,0.00,meteohub,2013-03-28 18:48:00,
2013-03-28 14:54:00,54.9,18.7,30.28,NW,315,0.0,4.0,24,0.00,,,0.00,meteohub,2013-03-28 18:54:00,
2013-03-28 14:59:00,54.7,18.5,30.27,West,270,0.0,4.0,24,0.00,,,0.00,meteohub,2013-03-28 18:59:00,
2013-03-28 15:04:00,54.7,18.5,30.27,West,270,0.0,0.0,24,0.00,,,0.00,meteohub,2013-03-28 19:04:00,
2013-03-28 15:09:00,55.2,19.0,30.27,West,270,0.0,0.0,24,0.00,,,0.00,meteohub,2013-03-28 19:09:00,
2013-03-28 15:14:00,55.4,21.0,30.26,NW,315,0.0,4.0,26,0.00,,,0.00,meteohub,2013-03-28 19:14:00,
2013-03-28 15:19:00,55.2,18.1,30.27,NW,315,0.0,4.0,23,0.00,,,0.00,meteohub,2013-03-28 19:19:00,
2013-03-28 15:24:00,54.9,18.7,30.26,West,270,0.0,0.0,24,0.00,,,0.00,meteohub,2013-03-28 19:24:00,
2013-03-28 15:29:00,55.2,19.0,30.26,WSW,248,0.0,0.0,24,0.00,,,0.00,meteohub,2013-03-28 19:29:00,
2013-03-28 15:38:00,55.9,21.6,30.26,WNW,293,0.0,0.0,26,0.00,,,0.00,meteohub,2013-03-28 19:38:00,
2013-03-28 15:43:00,56.1,21.7,30.25,NW,315,0.0,0.0,26,0.00,,,0.00,meteohub,2013-03-28 19:43:00,
2013-03-28 15:48:00,56.5,21.0,30.25,NW,315,0.0,3.0,25,0.00,,,0.00,meteohub,2013-03-28 19:48:00,
2013-03-28 15:53:00,56.8,22.3,30.25,West,270,0.0,3.0,26,0.00,,,0.00,meteohub,2013-03-28 19:53:00,
2013-03-28 15:58:00,57.4,20.8,30.25,West,270,0.0,2.0,24,0.00,,,0.00,meteohub,2013-03-28 19:58:00,
2013-03-28 16:04:00,57.9,21.4,30.25,NW,315,0.0,2.0,24,0.00,,,0.00,meteohub,2013-03-28 20:04:00,
2013-03-28 16:09:00,57.7,21.2,30.25,NW,315,0.0,0.0,24,0.00,,,0.00,meteohub,2013-03-28 20:09:00,
2013-03-28 16:14:00,58.3,21.6,30.25,NW,315,0.0,0.0,24,0.00,,,0.00,meteohub,2013-03-28 20:14:00,
2013-03-28 16:19:00,57.9,21.4,30.25,NW,315,0.0,0.0,24,0.00,,,0.00,meteohub,2013-03-28 20:19:00,
2013-03-28 16:24:00,58.1,21.6,30.25,West,270,0.0,0.0,24,0.00,,,0.00,meteohub,2013-03-28 20:24:00,
2013-03-28 16:29:00,57.4,20.8,30.25,NW,315,0.0,0.0,24,0.00,,,0.00,meteohub,2013-03-28 20:29:00,
2013-03-28 16:34:00,57.6,21.0,30.25,West,270,0.0,0.0,24,0.00,,,0.00,meteohub,2013-03-28 20:34:00,
2013-03-28 16:39:00,58.1,21.6,30.25,West,270,0.0,1.0,24,0.00,,,0.00,meteohub,2013-03-28 20:39:00,
2013-03-28 16:45:00,58.1,21.6,30.25,NW,315,0.0,1.0,24,0.00,,,0.00,meteohub,2013-03-28 20:45:00,
2013-03-28 16:50:00,57.7,21.2,30.25,NW,315,0.0,0.0,24,0.00,,,0.00,meteohub,2013-03-28 20:50:00,
2013-03-28 16:55:00,57.2,20.7,30.25,West,270,0.0,0.0,24,0.00,,,0.00,meteohub,2013-03-28 20:55:00,
2013-03-28 17:00:00,57.7,21.2,30.25,South,180,0.0,0.0,24,0.00,,,0.00,meteohub,2013-03-28 21:00:00,
2013-03-28 17:05:00,58.6,21.9,30.25,NW,315,0.0,0.0,24,0.00,,,0.00,meteohub,2013-03-28 21:05:00,
2013-03-28 17:10:00,58.1,21.6,30.25,NW,315,0.0,0.0,24,0.00,,,0.00,meteohub,2013-03-28 21:10:00,
2013-03-28 17:16:00,58.8,22.1,30.25,NW,315,0.0,0.0,24,0.00,,,0.00,meteohub,2013-03-28 21:16:00,
2013-03-28 17:21:00,58.3,21.6,30.25,NW,315,0.0,0.0,24,0.00,,,0.00,meteohub,2013-03-28 21:21:00,
2013-03-28 17:26:00,57.9,21.4,30.25,NW,315,0.0,0.0,24,0.00,,,0.00,meteohub,2013-03-28 21:26:00,
2013-03-28 17:31:00,59.4,21.6,30.25,NW,315,0.0,0.0,23,0.00,,,0.00,meteohub,2013-03-28 21:31:00,
2013-03-28 17:37:00,59.0,21.2,30.26,NW,315,8.0,0.0,23,0.00,,,0.00,meteohub,2013-03-28 21:37:00,
2013-03-28 17:42:00,58.3,21.6,30.26,NE,45,0.0,8.0,24,0.00,,,0.00,meteohub,2013-03-28 21:42:00,
2013-03-28 17:47:00,58.5,21.7,30.26,NE,45,0.0,8.0,24,0.00,,,0.00,meteohub,2013-03-28 21:47:00,
2013-03-28 17:52:00,58.5,21.7,30.26,NE,45,0.0,8.0,24,0.00,,,0.00,meteohub,2013-03-28 21:52:00,
2013-03-28 17:57:00,57.9,21.4,30.26,North,0,0.0,0.0,24,0.00,,,0.00,meteohub,2013-03-28 21:57:00,
2013-03-28 18:02:00,58.1,21.6,30.26,North,0,0.0,0.0,24,0.00,,,0.00,meteohub,2013-03-28 22:02:00,
2013-03-28 18:08:00,58.5,21.7,30.26,North,0,0.0,0.0,24,0.00,,,0.00,meteohub,2013-03-28 22:08:00,
2013-03-28 18:13:00,57.6,21.0,30.26,North,0,0.0,0.0,24,0.00,,,0.00,meteohub,2013-03-28 22:13:00,
2013-03-28 18:18:00,56.8,21.4,30.27,NW,315,0.0,0.0,25,0.00,,,0.00,meteohub,2013-03-28 22:18:00,
2013-03-28 18:23:00,56.1,20.8,30.27,NNW,338,0.0,0.0,25,0.00,,,0.00,meteohub,2013-03-28 22:23:00,
2013-03-28 18:28:00,56.5,21.9,30.27,East,90,0.0,0.0,26,0.00,,,0.00,meteohub,2013-03-28 22:28:00,
2013-03-28 18:33:00,56.5,21.0,30.27,NW,315,0.0,4.0,25,0.00,,,0.00,meteohub,2013-03-28 22:33:00,
2013-03-28 18:38:00,55.8,20.5,30.27,NW,315,0.0,6.0,25,0.00,,,0.00,meteohub,2013-03-28 22:38:00,
2013-03-28 18:43:00,55.4,20.1,30.28,West,270,0.0,6.0,25,0.00,,,0.00,meteohub,2013-03-28 22:43:00,
2013-03-28 18:48:00,55.0,18.9,30.28,NW,315,0.0,0.0,24,0.00,,,0.00,meteohub,2013-03-28 22:48:00,
2013-03-28 18:53:00,54.9,18.7,30.28,NW,315,0.0,0.0,24,0.00,,,0.00,meteohub,2013-03-28 22:53:00,
2013-03-28 18:58:00,55.0,18.9,30.28,NW,315,0.0,0.0,24,0.00,,,0.00,meteohub,2013-03-28 22:58:00,
2013-03-28 19:03:00,54.7,18.5,30.29,NW,315,0.0,0.0,24,0.00,,,0.00,meteohub,2013-03-28 23:03:00,
2013-03-28 19:08:00,54.3,18.3,30.29,WNW,293,0.0,0.0,24,0.00,,,0.00,meteohub,2013-03-28 23:08:00,
2013-03-28 19:14:00,54.0,18.0,30.28,WNW,293,0.0,1.0,24,0.00,,,0.00,meteohub,2013-03-28 23:14:00,
2013-03-28 19:19:00,53.6,18.7,30.29,WNW,293,0.0,1.0,25,0.00,,,0.00,meteohub,2013-03-28 23:19:00,
2013-03-28 19:24:00,53.4,19.4,30.29,WNW,293,0.0,1.0,26,0.00,,,0.00,meteohub,2013-03-28 23:24:00,
2013-03-28 19:29:00,53.2,20.1,30.29,NW,315,0.0,0.0,27,0.00,,,0.00,meteohub,2013-03-28 23:29:00,
2013-03-28 19:34:00,52.9,19.8,30.29,West,270,0.0,0.0,27,0.00,,,0.00,meteohub,2013-03-28 23:34:00,
2013-03-28 19:39:00,52.9,19.8,30.30,West,270,0.0,0.0,27,0.00,,,0.00,meteohub,2013-03-28 23:39:00,
2013-03-28 19:44:00,52.7,20.5,30.30,WNW,293,0.0,0.0,28,0.00,,,0.00,meteohub,2013-03-28 23:44:00,
2013-03-28 19:49:00,52.2,20.1,30.30,WNW,293,0.0,0.0,28,0.00,,,0.00,meteohub,2013-03-28 23:49:00,
2013-03-28 19:55:00,52.0,20.7,30.30,West,270,0.0,0.0,29,0.00,,,0.00,meteohub,2013-03-28 23:55:00,
2013-03-28 20:00:00,51.6,21.9,30.30,West,270,0.0,0.0,31,0.00,,,0.00,meteohub,2013-03-29 00:00:00,
2013-03-28 20:05:00,51.3,21.6,30.31,West,270,0.0,0.0,31,0.00,,,0.00,meteohub,2013-03-29 00:05:00,
2013-03-28 20:10:00,51.3,21.6,30.31,West,270,0.0,0.0,31,0.00,,,0.00,meteohub,2013-03-29 00:10:00,
2013-03-28 20:15:00,51.1,21.6,30.32,West,270,0.0,0.0,31,0.00,,,0.00,meteohub,2013-03-29 00:15:00,
2013-03-28 20:20:00,50.9,22.8,30.32,West,270,0.0,0.0,33,0.00,,,0.00,meteohub,2013-03-29 00:20:00,
2013-03-28 20:25:00,50.5,22.5,30.32,West,270,0.0,0.0,33,0.00,,,0.00,meteohub,2013-03-29 00:25:00,
2013-03-28 20:30:00,50.2,22.8,30.32,West,270,0.0,0.0,34,0.00,,,0.00,meteohub,2013-03-29 00:30:00,
2013-03-28 20:35:00,49.6,23.7,30.32,West,270,0.0,0.0,36,0.00,,,0.00,meteohub,2013-03-29 00:35:00,
2013-03-28 20:40:00,48.9,23.7,30.32,West,270,0.0,0.0,37,0.00,,,0.00,meteohub,2013-03-29 00:40:00,
2013-03-28 20:46:00,48.7,23.5,30.33,West,270,0.0,0.0,37,0.00,,,0.00,meteohub,2013-03-29 00:46:00,
2013-03-28 20:51:00,48.6,23.5,30.33,West,270,0.0,0.0,37,0.00,,,0.00,meteohub,2013-03-29 00:51:00,
2013-03-28 20:56:00,48.2,23.7,30.33,NW,315,0.0,0.0,38,0.00,,,0.00,meteohub,2013-03-29 00:56:00,
2013-03-28 21:01:00,48.2,23.7,30.33,NW,315,0.0,0.0,38,0.00,,,0.00,meteohub,2013-03-29 01:01:00,
2013-03-28 21:06:00,47.8,24.1,30.33,North,0,0.0,0.0,39,0.00,,,0.00,meteohub,2013-03-29 01:06:00,
2013-03-28 21:11:00,47.8,24.6,30.33,West,270,0.0,0.0,40,0.00,,,0.00,meteohub,2013-03-29 01:11:00,
2013-03-28 21:17:00,47.8,24.6,30.34,West,270,0.0,0.0,40,0.00,,,0.00,meteohub,2013-03-29 01:17:00,
2013-03-28 21:23:00,47.5,24.4,30.34,West,270,0.0,0.0,40,0.00,,,0.00,meteohub,2013-03-29 01:23:00,
2013-03-28 21:28:00,46.9,24.4,30.34,West,270,0.0,0.0,41,0.00,,,0.00,meteohub,2013-03-29 01:28:00,
2013-03-28 21:33:00,46.4,24.6,30.34,West,270,0.0,0.0,42,0.00,,,0.00,meteohub,2013-03-29 01:33:00,
2013-03-28 21:38:00,45.9,24.6,30.35,West,270,0.0,0.0,43,0.00,,,0.00,meteohub,2013-03-29 01:38:00,
2013-03-28 21:44:00,45.3,24.1,30.35,West,270,0.0,0.0,43,0.00,,,0.00,meteohub,2013-03-29 01:44:00,
2013-03-28 21:49:00,45.0,23.7,30.35,West,270,0.0,0.0,43,0.00,,,0.00,meteohub,2013-03-29 01:49:00,
2013-03-28 21:54:00,44.8,23.7,30.36,West,270,0.0,0.0,43,0.00,,,0.00,meteohub,2013-03-29 01:54:00,
2013-03-28 21:59:00,44.4,24.4,30.36,West,270,0.0,0.0,45,0.00,,,0.00,meteohub,2013-03-29 01:59:00,
2013-03-28 22:04:00,44.2,24.8,30.36,West,270,0.0,0.0,46,0.00,,,0.00,meteohub,2013-03-29 02:04:00,
2013-03-28 22:09:00,44.6,24.1,30.36,West,270,0.0,0.0,44,0.00,,,0.00,meteohub,2013-03-29 02:09:00,
2013-03-28 22:15:00,45.0,23.7,30.37,West,270,0.0,0.0,43,0.00,,,0.00,meteohub,2013-03-29 02:15:00,
2013-03-28 22:20:00,45.1,23.9,30.37,NW,315,0.0,0.0,43,0.00,,,0.00,meteohub,2013-03-29 02:20:00,
2013-03-28 22:25:00,45.1,23.9,30.37,NW,315,0.0,0.0,43,0.00,,,0.00,meteohub,2013-03-29 02:25:00,
2013-03-28 22:30:00,44.8,24.3,30.37,NW,315,0.0,0.0,44,0.00,,,0.00,meteohub,2013-03-29 02:30:00,
2013-03-28 22:35:00,44.8,23.7,30.38,West,270,0.0,0.0,43,0.00,,,0.00,meteohub,2013-03-29 02:35:00,
2013-03-28 22:40:00,45.1,23.4,30.38,WNW,293,0.0,0.0,42,0.00,,,0.00,meteohub,2013-03-29 02:40:00,
2013-03-28 22:45:00,45.5,23.7,30.38,WNW,293,0.0,0.0,42,0.00,,,0.00,meteohub,2013-03-29 02:45:00,
2013-03-28 22:50:00,45.5,23.7,30.38,NW,315,0.0,0.0,42,0.00,,,0.00,meteohub,2013-03-29 02:50:00,
2013-03-28 22:56:00,45.3,23.5,30.38,NW,315,0.0,0.0,42,0.00,,,0.00,meteohub,2013-03-29 02:56:00,
2013-03-28 23:01:00,45.3,23.5,30.38,NW,315,0.0,0.0,42,0.00,,,0.00,meteohub,2013-03-29 03:01:00,
2013-03-28 23:06:00,45.1,23.4,30.38,NW,315,0.0,0.0,42,0.00,,,0.00,meteohub,2013-03-29 03:06:00,
2013-03-28 23:11:00,44.6,23.5,30.38,West,270,0.0,0.0,43,0.00,,,0.00,meteohub,2013-03-29 03:11:00,
2013-03-28 23:16:00,44.4,23.9,30.38,West,270,0.0,0.0,44,0.00,,,0.00,meteohub,2013-03-29 03:16:00,
2013-03-28 23:22:00,44.1,24.1,30.38,West,270,0.0,0.0,45,0.00,,,0.00,meteohub,2013-03-29 03:22:00,
2013-03-28 23:27:00,43.3,23.4,30.39,West,270,0.0,0.0,45,0.00,,,0.00,meteohub,2013-03-29 03:27:00,
2013-03-28 23:32:00,43.2,23.2,30.39,West,270,0.0,0.0,45,0.00,,,0.00,meteohub,2013-03-29 03:32:00,
2013-03-28 23:37:00,42.8,23.9,30.39,West,270,0.0,0.0,47,0.00,,,0.00,meteohub,2013-03-29 03:37:00,
2013-03-28 23:42:00,42.3,23.9,30.39,West,270,0.0,0.0,48,0.00,,,0.00,meteohub,2013-03-29 03:42:00,
2013-03-28 23:47:00,41.9,23.7,30.39,West,270,0.0,0.0,48,0.00,,,0.00,meteohub,2013-03-29 03:47:00,
2013-03-28 23:53:00,41.4,24.1,30.39,West,270,0.0,0.0,50,0.00,,,0.00,meteohub,2013-03-29 03:53:00,
2013-03-28 23:58:00,41.0,24.8,30.39,West,270,0.0,0.0,52,0.00,,,0.00,meteohub,2013-03-29 03:58:00,